Quick links : Home Page : Contact Us : Index : Site Map : Search Site : Ephemerides


(162195) 1999 RK45

Orbital Elements

The following orbital elements are taken from MPO122984
(162195) 1999 RK45
Epoch 2007 Oct. 27.0 TT = JDT 2454400.5                 MPC
M 334.76549              (2000.0)            P               Q
n   0.48779167     Peri.    4.01084     -0.55987419     -0.82380130
a   1.5982564      Node   120.05837     +0.75732080     -0.55227545
e   0.7730819      Incl.    5.89135     +0.33616380     -0.12784066
P   2.02           H   19.5           G   0.15           U   3
From 113 observations at 5 oppositions, 1999-2007, mean residual 0".51.
An explanation of the orbital elements is available.

These orbital elements are also available in forms suitable for loading into a number of popular planetarium-type software programs.


Ephemeris

The following ephemeris is at intervals of five days. A daily ephemeris covering the same time interval is also available.

Personalized ephemerides for this (and other) objects may be generated using the Minor Planet & Comet Ephemeris Service.

Date    TT    R. A. (2000) Decl.     Delta      r     Elong.  Phase     V
2008 04 14    20 22.39   -16 18.3    1.717    1.837    80.3    32.6    23.4

Back to Observable Critical-List Minor Planets

MPC

Valid HTML 4.01!